Date,TemperatureHighF,TemperatureAvgF,TemperatureLowF,DewpointHighF,DewpointAvgF,DewpointLowF,HumidityHigh,HumidityAvg,HumidityLow,PressureMaxIn,PressureMinIn,WindSpeedMaxMPH,WindSpeedAvgMPH,GustSpeedMaxMPH,PrecipitationSumIn
2013-1-1,20.6,14.1,9.2,12.0,7.9,1.0,90,77,59,30.18,30.03,12,4,0,0.03
2013-1-2,23.2,18.5,13.5,19.0,14.8,9.0,90,85,77,30.13,30.02,12,4,0,0.00
2013-1-3,25.5,21.1,17.0,22.0,16.8,14.0,92,83,68,30.07,29.85,16,4,0,0.00
2013-1-4,36.6,27.3,19.7,26.0,18.2,14.0,79,69,54,30.14,29.82,21,6,0,0.00
2013-1-5,33.2,27.0,21.3,28.0,22.0,17.0,90,81,74,30.18,29.84,12,2,0,0.00
2013-1-6,29.8,22.6,13.9,29.0,19.2,11.0,96,87,79,30.25,29.81,17,6,0,0.00
2013-1-7,34.2,24.9,13.9,24.0,18.4,11.0,94,77,62,30.24,29.82,24,9,0,0.00
2013-1-8,37.6,29.8,17.8,34.0,25.7,15.0,94,85,67,30.13,29.82,18,5,0,0.00
2013-1-9,36.3,33.6,28.4,33.0,27.0,22.0,88,77,68,30.43,29.75,20,7,0,0.00
2013-1-10,37.7,30.5,22.4,33.0,25.1,19.0,92,81,60,30.49,30.04,15,7,0,0.00
2013-1-11,38.8,36.5,34.1,38.0,35.7,31.0,99,97,83,30.03,29.57,15,8,0,0.04
2013-1-12,42.0,37.8,29.0,42.0,33.6,22.0,100,85,66,29.91,29.47,17,8,0,0.01
2013-1-13,28.9,21.9,16.5,22.0,17.3,12.0,90,82,74,30.04,29.89,11,5,0,0.00
2013-1-14,24.0,16.2,10.7,13.0,8.5,4.0,86,72,52,30.36,30.05,10,5,0,0.00
2013-1-15,27.1,16.4,6.2,14.0,8.0,2.0,82,70,54,30.39,30.00,18,7,0,0.00
2013-1-16,28.5,22.1,14.5,24.0,16.9,12.0,90,80,71,30.07,29.59,22,10,0,0.00
2013-1-17,14.1,7.4,1.8,12.0,2.2,-2.0,95,79,64,30.35,30.08,14,6,0,0.13
2013-1-18,17.9,9.5,0.3,16.0,6.4,-4.0,93,87,79,30.38,29.82,9,3,0,0.08
2013-1-19,29.2,20.9,14.3,26.0,19.0,12.0,100,92,82,29.85,29.47,22,4,0,0.02
2013-1-20,13.7,7.3,0.4,12.0,4.6,-3.0,92,88,81,30.20,29.66,20,10,0,0.01
2013-1-21,3.1,-2.5,-7.6,-3.0,-7.3,-13.0,85,80,72,30.18,30.04,18,8,0,0.00
2013-1-22,2.2,-4.1,-9.1,-6.0,-10.0,-14.0,84,76,65,30.31,30.18,15,7,0,0.00
2013-1-23,12.7,4.1,-4.7,9.0,-1.4,-11.0,91,78,60,30.40,30.08,21,5,0,0.03
2013-1-24,12.2,7.8,4.0,8.0,4.5,1.0,90,86,80,30.67,30.41,14,5,0,0.01
2013-1-25,18.7,12.7,7.6,16.0,10.2,4.0,92,89,85,30.45,29.98,10,3,0,0.04
2013-1-26,23.2,19.1,13.5,19.0,15.6,11.0,95,86,77,30.40,30.09,14,5,0,0.12
2013-1-27,32.1,26.1,19.3,30.0,21.7,15.0,97,83,69,30.38,30.02,18,8,0,0.00
2013-1-28,32.1,29.6,26.7,31.0,29.0,26.0,98,97,97,30.01,29.86,13,3,0,0.11
2013-1-29,36.8,32.8,30.7,37.0,32.3,30.0,99,97,94,29.91,29.50,17,8,0,0.03
2013-1-30,32.7,24.5,15.8,31.0,22.7,14.0,100,93,85,29.58,29.33,25,14,0,0.10
2013-1-31,15.7,13.0,10.4,14.0,11.3,9.0,94,92,91,29.94,29.37,20,10,0,0.09
2013-2-1,11.8,6.7,-1.0,10.0,4.2,-4.0,92,89,87,30.16,29.94,14,5,0,0.00
2013-2-2,13.2,3.4,-3.2,11.0,0.7,-6.0,90,88,86,30.15,30.05,15,4,0,0.00
2013-2-3,13.4,5.9,-0.3,11.0,3.1,-3.0,91,88,83,30.05,29.87,23,6,0,0.00
2013-2-4,14.5,5.2,-4.0,11.0,1.9,-7.0,89,86,82,30.04,29.95,12,3,0,0.00
2013-2-5,20.5,9.4,-7.5,19.0,6.7,-11.0,93,88,84,30.07,29.77,16,6,0,0.02
2013-2-6,22.2,13.8,4.8,16.0,10.2,2.0,93,85,73,30.26,30.08,6,1,0,0.00
2013-2-7,21.9,18.8,17.1,20.0,17.1,16.0,94,93,87,30.26,30.21,16,3,0,0.05
2013-2-8,21.5,16.7,0.7,19.0,12.7,-3.0,92,84,71,30.44,30.26,17,6,0,0.00
2013-2-9,27.9,14.7,-3.4,23.0,11.6,-7.0,93,87,78,30.44,30.16,21,6,0,0.00
2013-2-10,32.2,28.1,24.1,32.0,26.2,22.0,100,92,84,30.16,29.44,19,8,0,0.12
2013-2-11,34.3,28.9,21.1,34.0,27.9,18.0,99,95,86,29.81,29.27,28,8,0,0.24
2013-2-12,25.8,22.1,18.2,20.0,17.9,15.0,94,84,71,29.97,29.81,9,4,0,0.05
2013-2-13,36.2,24.3,13.6,26.0,20.0,12.0,95,84,66,29.80,29.66,7,2,0,0.00
2013-2-14,31.7,25.8,18.6,29.0,23.2,14.0,96,89,78,29.95,29.67,21,8,0,0.01
2013-2-15,18.5,15.1,9.8,15.0,10.8,3.0,91,83,69,30.20,29.95,17,8,0,0.01
2013-2-16,17.0,12.0,8.1,15.0,9.7,5.0,92,90,87,30.21,30.12,12,5,0,0.20
2013-2-17,19.8,11.2,-0.9,14.0,5.0,-4.0,89,77,57,30.22,30.05,11,4,0,0.00
2013-2-18,33.8,26.3,13.5,31.0,22.9,6.0,96,87,73,30.05,29.45,18,8,0,0.01
2013-2-19,31.1,19.3,10.9,30.0,18.1,9.0,97,94,92,29.97,29.33,38,18,0,0.14
2013-2-20,17.3,14.4,11.6,16.0,12.9,10.0,94,93,92,30.43,29.98,24,14,0,0.00
2013-2-21,22.1,19.3,15.9,21.0,18.1,14.0,96,95,93,30.52,30.36,13,6,0,0.00
2013-2-22,22.4,19.2,14.0,22.0,18.1,12.0,96,95,93,30.36,29.85,15,6,0,0.08
2013-2-23,30.4,25.1,17.9,30.0,24.3,17.0,98,97,94,29.86,29.77,6,0,0,0.09
2013-2-24,30.3,27.3,25.4,29.0,26.7,25.0,98,97,96,30.15,29.86,13,4,0,0.05
2013-2-25,31.7,27.8,24.0,31.0,27.1,23.0,98,97,96,30.18,30.14,7,1,0,0.01
2013-2-26,31.7,28.9,26.7,31.0,28.1,25.0,98,96,94,30.18,29.95,13,3,0,0.00
2013-2-27,31.2,29.4,26.3,31.0,28.6,25.0,99,97,94,29.94,29.80,19,8,0,0.14
2013-2-28,29.9,25.6,22.1,30.0,24.1,19.0,100,94,88,30.24,29.88,23,11,0,0.04
2013-3-1,22.6,19.8,18.4,20.0,15.9,13.0,99,85,74,30.37,30.23,20,9,0,0.00
2013-3-2,22.0,18.8,14.8,17.0,14.5,10.0,92,83,75,30.32,30.19,20,7,0,0.00
2013-3-3,24.8,18.1,10.0,18.0,13.4,7.0,90,82,71,30.19,30.14,13,5,0,0.00
2013-3-4,28.2,19.5,11.1,20.0,14.5,9.0,93,82,57,30.25,30.17,9,2,0,0.00
2013-3-5,30.9,21.7,11.7,27.0,17.3,8.0,93,83,63,30.23,30.14,16,4,0,0.00
2013-3-6,29.7,26.8,21.2,28.0,24.6,16.0,96,91,79,30.35,30.18,13,6,0,0.02
2013-3-7,27.1,23.3,20.3,22.0,18.9,16.0,91,83,70,30.50,30.33,11,3,0,0.01
2013-3-8,33.8,25.6,14.3,26.0,21.2,12.0,93,83,69,30.53,30.33,14,5,0,0.00
2013-3-9,35.5,31.2,25.3,32.0,28.7,24.0,96,90,79,30.33,29.86,17,9,0,0.05
2013-3-10,34.7,33.9,33.4,34.0,33.3,33.0,98,97,96,29.89,29.80,18,5,0,0.06
2013-3-16,25.6,21.9,17.3,19.0,15.5,14.0,90,76,64,30.13,30.01,12,4,0,0.06
2013-3-17,27.5,17.6,12.4,15.0,8.5,4.0,91,69,49,30.35,30.14,16,6,0,0.01
2013-3-18,33.6,23.3,11.2,28.0,18.4,7.0,97,82,56,30.20,29.49,24,10,0,0.05
2013-3-19,28.5,24.6,20.4,28.0,21.7,15.0,97,89,75,29.84,29.43,17,7,0,0.07
2013-3-20,22.1,18.8,15.1,21.0,15.3,11.0,94,86,79,29.96,29.84,23,10,0,0.06
2013-3-21,24.1,22.3,19.0,23.0,19.7,15.0,95,89,82,30.03,29.93,21,11,0,0.05
2013-3-22,29.3,25.5,18.8,26.0,22.8,15.0,94,89,84,30.12,29.99,15,8,0,0.01
2013-3-23,32.4,27.8,24.6,28.0,24.2,22.0,93,86,73,30.18,30.10,12,5,0,0.02
2013-3-24,30.6,27.2,24.3,25.0,23.1,20.0,92,84,75,30.17,29.97,15,4,0,0.00
2013-3-25,31.6,29.5,26.9,28.0,26.1,23.0,94,87,80,30.11,29.96,16,7,0,0.02
2013-3-26,36.7,32.9,29.8,32.0,29.3,26.0,96,87,72,30.21,30.11,17,8,0,0.05
2013-3-27,38.9,32.7,27.5,30.0,25.2,21.0,88,75,55,30.27,30.19,18,10,0,0.00
2013-3-28,42.9,33.8,25.9,30.0,21.6,17.0,76,62,40,30.32,30.27,11,4,0,0.00
2013-3-29,50.1,35.1,21.3,22.0,18.6,15.0,81,55,28,30.32,30.20,8,1,0,0.00
2013-3-30,39.6,31.8,25.8,34.0,27.3,20.0,97,84,60,30.20,29.77,17,6,0,0.14
2013-3-31,44.2,33.6,22.9,36.0,28.8,21.0,99,85,48,29.83,29.57,30,7,0,0.00
2013-4-1,22.6,20.1,18.3,21.0,17.3,14.0,93,89,83,30.05,29.83,21,13,0,0.00
2013-4-2,25.5,23.5,21.6,12.0,11.2,11.0,63,60,55,30.30,30.29,9,3,0,0.00
2013-4-3,41.1,29.9,21.2,21.0,15.0,11.0,73,55,31,30.45,30.18,13,5,0,0.00
2013-4-4,44.7,34.9,29.6,32.0,25.1,21.0,78,68,54,30.18,29.93,19,8,0,0.00
2013-4-5,34.2,29.4,23.9,21.0,17.5,15.0,74,62,48,30.28,30.22,14,4,0,0.00
2013-4-6,36.2,29.9,22.2,33.0,25.9,16.0,96,85,69,30.23,29.56,25,8,0,0.23
2013-4-7,40.6,33.3,27.0,33.0,30.1,25.0,98,88,68,30.04,29.52,19,7,0,0.13
2013-4-8,36.2,31.9,26.6,35.0,30.2,25.0,98,93,86,30.06,29.89,11,3,0,0.33
2013-4-9,35.6,32.6,30.0,35.0,30.9,26.0,98,93,83,30.22,30.06,18,5,0,0.00
2013-4-10,35.7,32.0,28.8,28.0,24.1,18.0,92,73,50,30.25,30.16,14,7,0,0.00
2013-4-11,32.9,30.8,27.3,27.0,20.4,14.0,94,67,47,30.20,29.91,25,8,0,0.00
2013-4-12,30.0,27.3,25.3,29.0,26.4,24.0,97,96,95,29.89,29.71,13,4,0,0.17
2013-4-13,33.8,29.1,25.7,33.0,28.0,25.0,97,95,91,29.95,29.72,16,5,0,0.05
2013-4-14,41.8,32.1,22.5,39.0,28.5,21.0,97,87,59,30.08,29.92,12,4,0,0.02
2013-4-15,53.7,41.3,32.5,41.0,33.6,26.0,98,76,43,29.92,29.62,25,7,0,0.36
2013-4-16,43.2,37.1,30.5,32.0,29.4,26.0,95,74,59,30.38,29.85,15,6,0,0.00
2013-4-17,42.0,35.7,28.0,34.0,30.1,27.0,97,81,65,30.46,30.12,12,3,0,0.00
2013-4-18,37.1,34.7,33.4,37.0,33.5,29.0,99,95,72,30.11,29.35,9,3,0,0.38
2013-4-19,36.8,30.7,21.6,37.0,29.6,20.0,99,95,82,29.73,29.09,28,10,0,0.19
2013-4-20,30.6,24.1,19.8,21.0,18.6,15.0,95,81,61,30.49,29.74,22,8,0,0.05
2013-4-21,40.1,29.4,14.4,30.0,20.9,12.0,90,72,47,30.58,30.30,20,8,0,0.00
2013-4-22,38.9,36.0,33.7,37.0,34.0,30.0,98,92,78,30.29,30.17,17,4,0,0.56
2013-4-23,34.9,33.1,31.9,33.0,31.9,29.0,99,94,86,30.18,29.89,19,7,0,0.20
2013-4-24,43.3,34.6,24.5,29.0,23.5,18.0,95,68,39,30.00,29.92,8,2,0,0.01
2013-4-25,44.7,36.5,31.2,34.0,29.1,24.0,96,77,45,30.23,29.87,15,5,0,0.19
2013-4-26,49.9,38.9,27.1,38.0,31.8,23.0,93,77,56,30.26,30.12,22,5,0,0.04
2013-4-27,63.8,48.6,32.5,50.0,41.3,31.0,97,78,55,30.19,30.02,15,4,0,0.00
2013-4-28,67.5,54.9,40.2,46.0,40.1,35.0,84,61,34,30.02,29.79,16,6,0,0.00
2013-4-29,65.1,52.8,42.2,55.0,46.7,37.0,97,80,63,29.82,29.76,10,4,0,0.12
2013-4-30,65.4,53.9,45.3,57.0,50.4,44.0,97,88,74,29.84,29.66,32,9,0,0.05
2013-5-1,58.3,49.2,36.1,52.0,42.9,32.0,98,80,58,30.39,29.83,20,7,0,0.27
2013-5-2,41.8,35.7,32.0,36.0,33.1,31.0,97,90,79,30.43,30.35,24,13,0,0.56
2013-5-3,38.4,34.8,32.0,36.0,33.2,31.0,98,94,86,30.36,30.23,19,10,0,0.10
2013-5-4,52.0,39.8,34.3,42.0,36.8,34.0,98,90,69,30.24,30.18,12,7,0,0.02
2013-5-5,55.1,42.6,34.5,43.0,37.4,33.0,96,83,61,30.22,30.14,11,5,0,0.00
2013-5-6,62.7,45.8,32.3,45.0,38.6,32.0,98,79,49,30.17,30.07,9,3,0,0.00
2013-5-7,76.5,57.9,37.6,47.0,38.8,30.0,94,57,18,30.13,30.02,8,1,0,0.00
2013-5-8,77.1,62.2,43.6,44.0,38.2,31.0,72,44,26,30.03,29.95,8,1,0,0.00
2013-5-9,49.0,45.4,41.3,40.0,39.2,37.0,87,79,69,30.07,29.98,15,5,0,0.00
2013-5-13,47.0,42.8,40.4,30.0,28.1,27.0,66,57,46,30.01,29.97,16,8,0,0.00
2013-5-14,61.7,49.6,37.9,45.0,38.8,31.0,87,68,51,29.97,29.52,17,9,0,0.02
2013-5-15,71.9,60.6,44.2,46.0,41.6,35.0,88,54,26,29.74,29.47,22,9,0,0.00
2013-5-16,59.5,46.9,34.7,41.0,37.4,33.0,92,70,47,30.14,29.74,14,5,0,0.00
2013-5-17,66.6,49.8,33.4,47.0,39.5,32.0,95,71,44,30.24,30.13,13,2,0,0.00
2013-5-18,60.9,54.1,46.5,48.0,44.8,40.0,83,71,58,30.18,29.98,17,6,0,0.00
2013-5-19,80.0,64.9,52.7,63.0,56.0,47.0,87,74,53,29.98,29.82,13,6,0,0.01
2013-5-20,65.9,61.8,58.1,63.0,58.6,53.0,96,89,76,29.84,29.70,17,9,0,0.23
2013-5-21,60.7,55.2,43.7,59.0,54.4,43.0,99,97,92,29.74,29.65,17,6,0,0.26
2013-5-22,45.2,42.9,41.1,45.0,42.7,41.0,99,99,97,29.95,29.73,11,5,0,0.14
2013-5-23,43.4,38.7,36.3,40.0,33.1,30.0,96,81,63,30.35,29.95,22,11,0,0.01
2013-5-24,40.8,34.1,30.0,37.0,31.7,29.0,97,91,79,30.46,30.35,7,2,0,0.00
2013-5-25,62.2,56.2,43.3,38.0,34.0,31.0,73,45,34,30.48,30.36,13,2,0,0.00
2013-5-26,65.5,51.2,31.6,40.0,34.8,30.0,94,59,32,30.41,30.25,10,2,0,0.00
2013-5-27,68.8,55.3,39.0,46.0,38.9,32.0,85,58,27,30.26,29.99,17,4,0,0.00
2013-5-28,56.7,53.9,50.9,52.0,45.5,36.0,94,74,47,29.98,29.76,9,3,0,0.00
2013-5-29,76.4,61.6,52.3,61.0,56.0,51.0,96,83,54,29.86,29.76,13,2,0,0.00
2013-5-30,82.5,67.4,55.3,68.0,61.6,54.0,97,83,61,29.86,29.73,19,6,0,0.00
2013-5-31,75.2,65.5,57.4,65.0,61.0,56.0,97,86,67,29.79,29.66,15,7,0,0.03
2013-6-1,77.0,57.4,41.3,65.0,53.6,41.0,99,88,54,29.73,29.59,16,3,0,0.52
2013-6-2,49.3,41.6,35.5,40.0,37.4,33.0,98,86,63,30.05,29.73,31,10,0,0.19
2013-6-3,53.4,44.7,31.6,41.0,35.1,30.0,97,72,44,30.16,30.05,12,3,0,0.00
2013-6-4,64.4,50.7,32.1,44.0,35.7,30.0,94,61,33,30.25,30.16,5,0,0,0.00
2013-6-5,53.6,50.2,46.6,49.0,45.4,40.0,92,83,71,30.22,30.13,8,2,0,0.03
2013-6-6,53.7,49.3,45.4,49.0,45.6,43.0,95,87,69,30.13,30.05,6,1,0,0.02
2013-6-7,65.0,52.9,43.4,48.0,43.6,40.0,92,73,47,30.06,29.96,8,2,0,0.01
2013-6-8,72.3,56.6,39.9,49.0,42.9,38.0,95,65,31,30.06,29.96,4,0,0,0.00
2013-6-9,74.0,60.6,42.7,54.0,48.1,40.0,94,66,41,30.12,29.97,17,4,0,0.00
2013-6-10,78.4,67.2,57.2,61.0,56.3,51.0,89,69,53,29.97,29.78,17,5,0,0.00
2013-6-11,73.7,62.9,52.3,64.0,57.9,51.0,98,85,68,29.89,29.81,9,2,0,0.00
2013-6-12,77.8,63.2,47.4,59.0,51.5,47.0,99,70,41,29.90,29.80,11,1,0,0.00
2013-6-13,58.8,51.8,46.6,50.0,47.2,44.0,94,85,70,30.12,29.80,17,7,0,0.00
2013-6-14,65.8,54.3,39.4,45.0,39.6,33.0,92,62,30,30.21,30.05,9,2,0,0.00
2013-6-15,74.9,60.5,49.3,62.0,53.1,43.0,93,77,62,30.04,29.79,8,1,0,0.01
2013-6-16,76.4,64.1,52.6,61.0,55.8,51.0,98,78,46,29.86,29.73,17,3,0,0.22
2013-6-17,54.6,48.8,40.6,51.0,45.5,39.0,97,89,75,30.09,29.83,11,4,0,0.00
2013-6-18,65.8,52.4,38.0,48.0,40.8,37.0,97,69,38,30.20,30.10,8,2,0,0.00
2013-6-19,74.5,59.1,39.1,50.0,43.9,37.0,94,61,31,30.17,30.05,12,3,0,0.00
2013-6-20,76.8,63.9,51.8,64.0,55.8,47.0,95,76,59,30.15,30.06,7,1,0,0.18
2013-6-21,63.1,60.5,53.2,62.0,59.3,52.0,98,95,89,30.14,29.90,17,5,0,0.33
2013-6-22,64.4,57.6,50.1,62.0,56.7,50.0,100,96,88,30.11,29.98,8,2,0,0.01
2013-6-23,80.2,66.6,59.0,70.0,63.4,59.0,100,90,65,30.01,29.80,15,5,0,0.24
2013-6-24,84.4,70.6,58.0,70.0,64.1,57.0,99,82,52,29.93,29.77,9,1,0,0.04
2013-6-25,85.0,73.4,64.5,69.0,63.6,58.0,98,74,41,29.81,29.77,7,0,0,0.01
2013-6-26,86.5,72.1,61.6,72.0,65.4,60.0,99,81,51,29.82,29.70,18,4,0,0.61
2013-6-27,79.8,67.0,61.8,70.0,64.1,60.0,99,91,67,29.76,29.66,10,1,0,0.32
2013-6-28,61.7,57.8,53.1,61.0,57.3,53.0,99,98,96,29.73,29.62,10,2,0,0.04
2013-6-29,54.8,53.9,52.7,55.0,54.0,53.0,100,100,99,29.76,29.73,9,4,0,0.02